#timestamp,LO_Frequency,Hit 
1500472815.4,286046998.7,N
1500472835.3,286046999.4,N
1500472855.1,286046998.1,N
1500472875.8,286047002.8,N
1500472895.7,286047001.1,N
1500472915.5,286047000.6,N
1500472935.4,286047001.1,N
1500472955.2,286046997.5,N
1500472975.0,286047000.3,N
1500472975.9,286047000.3,N
1500472995.8,286046999.8,N
1500473015.6,286046999.8,N
1500473035.4,286046999.9,N
1500473055.3,286047000.6,N
1500473075.1,286046998.2,N
1500473095.9,286047000.9,N
1500473115.7,286047000.0,N
1500473135.5,286047000.8,N
1500473155.4,286046998.5,N
1500473175.2,286046998.3,N
1500473195.0,286047001.0,N
1500473196.0,286047001.0,N
1500473215.8,286046998.6,N
1500473235.6,286047001.0,N
1500473255.5,286047000.0,N
1500473275.3,286047000.8,N
1500473295.1,286046998.4,N
1500473315.9,286047001.2,N
1500473335.7,286046998.8,N
1500473355.6,286046998.6,N
1500473375.4,286047001.1,N
1500473395.2,286046998.1,N
1500473415.1,286046999.4,N
1500473416.0,286046999.4,N
1500473435.8,286046998.3,N
1500473455.6,286046999.9,N
1500473475.5,286047000.2,N
1500473495.3,286047000.3,N
1500473515.2,286046998.5,N
1500473535.9,286046998.7,N
1500473555.7,286046996.5,N
1500473575.6,286046999.6,N
1500473595.4,286047001.0,N
1500473615.2,286047000.3,N
1500473635.1,286046999.8,N
1500473636.0,286046999.8,N
1500473655.8,286046998.9,N
1500473675.7,286047000.6,N
1500473695.5,286047000.4,N
1500473715.3,286046998.3,N
1500473735.2,286046998.5,N
1500473755.0,286047000.6,N
1500473755.9,286047000.6,N
1500473775.7,286046998.2,N
1500473795.6,286047002.8,N
1500473815.4,286047002.7,N
1500473835.3,286047002.6,N
1500473855.1,286047002.2,N
1500473856.0,286047002.2,N
1500473875.8,286047001.5,N
1500473895.7,286047002.1,N
1500473915.5,286047002.0,N
1500473935.3,286047004.2,N
1500473955.2,286047004.0,N
1500473975.0,286047003.5,N
1500473975.9,286047003.5,N
1500473995.8,286047005.9,N
1500474015.6,286047003.0,N
1500474035.4,286047004.0,N
1500474055.3,286047003.6,N
1500474075.1,286047003.4,N
1500474095.8,286047005.8,N
1500474115.7,286047005.7,N
1500474135.5,286047004.6,N
1500474155.4,286047005.6,N
1500474175.2,286047004.7,N
1500474195.0,286047007.6,N
1500474195.9,286047007.6,N
1500474215.8,286047006.9,N
1500474235.6,286047007.0,N
1500474255.4,286047007.5,N
1500474275.3,286047006.9,N
1500474295.1,286047007.3,N
1500474315.9,286047007.6,N
1500474335.7,286047004.6,N
1500474355.5,286047005.0,N
1500474375.4,286047004.6,N
1500474395.2,286047003.0,N
1500474415.0,286047005.6,N
1500474415.9,286047005.6,N
1500474435.8,286047005.1,N
1500474455.6,286047003.4,N
1500474475.5,286047003.6,N
1500474495.3,286047003.3,N
1500474515.1,286047003.4,N
1500474535.9,286047003.8,N
1500474555.7,286047005.9,N
1500474575.5,286047005.4,N
1500474595.4,286047007.0,N
1500474615.2,286047005.3,N
1500474635.1,286047004.1,N
1500474636.0,286047004.1,N
1500474655.8,286047004.4,N
1500474675.6,286047002.9,N
1500474695.5,286047003.2,N
1500474715.3,286047003.5,N
1500474735.1,286047005.7,N
1500474755.9,286047005.9,N
1500474775.7,286047002.9,N
1500474795.6,286047005.5,N
1500474815.4,286047004.5,N
1500474835.2,286047005.5,N
1500474855.1,286047002.9,N
1500474856.0,286047002.9,N
1500474875.8,286047004.9,N
1500474895.6,286047007.6,N
1500474915.5,286047004.5,N
1500474935.3,286047007.5,N
1500474955.2,286047007.1,N
1500474975.9,286047009.0,N
1500474995.7,286047006.3,N
1500475015.6,286047006.7,N
1500475035.4,286047006.4,N
1500475055.2,286047006.5,N
1500475075.1,286047006.5,N
1500475076.0,286047006.5,N
1500475095.8,286047010.8,N
1500475115.7,286047008.0,N
1500475135.5,286047008.5,N
1500475155.3,286047009.0,N
1500475175.2,286047008.9,N
1500475195.0,286047009.2,N
1500475195.9,286047009.2,N
1500475215.7,286047006.4,N
1500475235.6,286047007.5,N
1500475255.4,286047007.6,N
1500475275.3,286047006.9,N
1500475295.1,286047005.2,N
1500475296.0,286047005.2,N
1500475315.8,286047006.5,N
1500475335.7,286047006.3,N
1500475355.5,286047006.9,N
1500475375.3,286047006.6,N
1500475395.2,286047006.1,N
1500475415.0,286047007.1,N
1500475415.9,286047007.1,N
1500475435.8,286047007.1,N
1500475455.6,286047004.7,N
1500475475.4,286047007.4,N
1500475495.3,286047006.3,N
1500475515.1,286047007.3,N
1500475535.8,286047007.0,N
1500475555.7,286047006.6,N
1500475575.5,286047007.3,N
1500475595.4,286047007.3,N
1500475615.2,286047006.9,N
1500475635.0,286047009.1,N
1500475635.9,286047009.1,N
1500475655.8,286047008.5,N
1500475675.6,286047008.3,N
1500475695.5,286047008.9,N
1500475715.3,286047009.1,N
1500475735.1,286047009.1,N
1500475755.9,286047008.6,N
1500475775.7,286047008.4,N
1500475795.5,286047009.5,N
1500475815.4,286047010.0,N
1500475835.2,286047010.8,N
1500475855.1,286047008.0,N
1500475856.0,286047008.0,N
1500475875.8,286047008.4,N
1500475895.6,286047010.8,N
1500475915.5,286047007.9,N
1500475935.3,286047007.7,N
1500475955.1,286047010.3,N
1500475975.9,286047010.6,N
1500475995.7,286047008.2,N
1500476015.6,286047008.9,N
1500476035.4,286047008.7,N
1500476055.2,286047008.9,N
1500476075.1,286047008.1,N
1500476076.0,286047008.1,N
1500476095.8,286047010.8,N
1500476115.6,286047010.3,N
1500476135.5,286047010.4,N
1500476155.3,286047007.9,N
1500476175.2,286047008.0,N
1500476195.9,286047008.3,N
1500476215.7,286047007.8,N
1500476235.6,286047010.3,N
1500476255.4,286047010.4,N
1500476275.2,286047009.9,N
1500476295.1,286047010.3,N
1500476296.0,286047010.3,N
1500476315.8,286047010.2,N
1500476335.7,286047009.9,N
1500476355.5,286047009.7,N
1500476375.3,286047011.9,N
1500476395.2,286047010.0,N
